Weather Service Report


416 
FPUS83 KFGF 280331
OPUFGF
PRAIRIE TO PINES WEATHER ROUNDUP
NATIONAL WEATHER SERVICE EASTERN NORTH DAKOTA/GRAND FORKS ND
1000 PM CDT MON APR 27 2015

 **SATELLITE DATA USED TO AUGMENT SKY COVER AT AUTOMATED STATIONS**
 *****  WEATHER ACROSS EASTERN NORTH DAKOTA  *****
  
CITY           SKY/WX    TMP DP  RH WIND       PRES   REMARKS
GRAND FORKS    LGT RAIN  49  43  80 N10       30.25R                  
GRAND FORKS AF LGT RAIN  48  46  93 N8        30.27R                  
GRAND CITY NWS   N/A     46 N/A N/A N12         N/A                   
BUXTON           N/A     51  45  81 CALM        N/A                   
DEVILS LAKE    CLOUDY    45  37  76 NW7       30.27R                  
FARGO          MOCLDY    56  41  57 N22G31    30.21R                  
WAHPETON ARPT  PTCLDY    57  36  44 N17G23    30.18R                  
$$

 *****  WEATHER ACROSS CENTRAL AND WESTERN NORTH DAKOTA  *****
  
CITY           SKY/WX    TMP DP  RH WIND       PRES   REMARKS
JAMESTOWN      LGT RAIN  47  44  90 NW8       30.27R                  
BISMARCK       CLOUDY    49  40  71 NW7       30.31S                  
MINOT          FAIR      46  39  76 S5        30.26S                  
MINOT AFB      CLEAR     45  44  99 SW8       30.25S                  
GARRISON         N/A     41  37  86 SW3       30.28F                  
WILLISTON      CLEAR     49  38  65 SW6       30.28R                  
DICKINSON      CLEAR     39  34  82 SW5       30.29S                  
HETTINGER      CLOUDY    43  38  82 W5        30.33S                  
$$

 *****  OTHER OBSERVATIONS NORTHEAST NORTH DAKOTA  *****
  
CITY           SKY/WX    TMP DP  RH WIND       PRES   REMARKS
WALHALLA       MOCLDY    45  45 100 CALM      30.27S                  
LANGDON        FAIR      41  41 100 CALM      30.27S FOG              
CAVALIER       FAIR      46  45  93 NW3       30.27S                  
GRAFTON        MOCLDY    46  46 100 N8        30.27S                  
CANDO          FAIR      41  39  93 CALM      30.27F                  
FORT TOTTEN      N/A     44  42  93 CALM      29.95S                  
ROLLA          NOT AVBL                                               
RUGBY          NOT AVBL                                               
 ***** THE ABOVE OBSERVATIONS ARE NON NWS ARE NOT QUALITY
        CONTROLLED AND MAY MIS-REPORT RAIN FOR SNOW...
$$

 *****  OTHER OBSERVATIONS SOUTHEAST NORTH DAKOTA *****
  
CITY           SKY/WX    TMP DP  RH WIND       PRES   REMARKS
COOPERSTOWN    NOT AVBL                                               
VALLEY CITY    LGT RAIN  46  46 100 NW17      30.26R                  
OAKES            N/A     50  43  76 N20       30.24R                  
GWINNER        PTCLDY    54  39  58 N18       30.24R                  
BUFFALO        NOT AVBL                                               
WYNDMERE       NOT AVBL                                               
 ***** THE ABOVE OBSERVATIONS ARE NON NWS ARE NOT QUALITY
       CONTROLLED AND MAY MIS-REPORT RAIN FOR SNOW...
$$

  *****  WEATHER ACROSS NORTHERN MINNESOTA  *****     
  
CITY           SKY/WX    TMP DP  RH WIND       PRES   REMARKS
FLAG ISLAND    CLOUDY    48  41  76 N15       30.20R                  
WARROAD        CLOUDY    48  43  81 NW10      30.21S                  
ROSEAU         CLOUDY    52  45  76 N7        30.22R                  
HALLOCK        DRIZZLE   46  43  87 N10       30.25S                  
THF RVR FALLS  CLOUDY    48  39  71 N17       30.23R                  
HALSTAD          N/A     52  41  66 N18         N/A                   
FOSSTON        CLOUDY    54  39  58 N20G25    30.20R                  
BAUDETTE       PTCLDY    50  41  71 N14       30.18R                  
WASKISH        PTCLDY    55  43  62 CALM      30.16S                  
CROOKSTON      DRIZZLE   48  43  81 N16G22    30.25R                  
$$
  *****  WEATHER ACROSS CENTRAL AND WEST MINNESOTA  *****     
  
CITY           SKY/WX    TMP DP  RH WIND       PRES   REMARKS
BEMIDJI        PTCLDY    57  39  51 N9        30.15S                  
PARK RAPIDS    PTCLDY    55  28  35 CALM      30.14R                  
WADENA         PTCLDY    55  28  35 W3        30.14S                  
DETROIT LAKES  PTCLDY    59  41  51 N12G18    30.18R                  
MOORHEAD       MOCLDY    54  39  58 N20       30.21S                  
FERGUS FALLS   CLEAR     54  25  32 NW13G18   30.17R                  
ELBOW LAKE     FAIR      53  30  42 CALM      30.16R                  
MORRIS MN      FAIR      55  25  30 S3        30.15S                  
STAPLES        PTCLDY    48  27  43 CALM      30.15S                  
WHEATON        CLEAR     54  34  47 NW10      30.19R                  
$$
  *****  WEATHER ELSEWHERE ACROSS MINNESOTA  *****     
  
CITY           SKY/WX    TMP DP  RH WIND       PRES   REMARKS
DULUTH         PTCLDY    49  27  42 E7        30.15R                  
INTRNTL FALLS  PTCLDY    45  33  63 CALM      30.14R                  
ELY            PTCLDY    41  28  60 CALM      30.15S                  
CLOQUET        PTCLDY    46  27  46 CALM      30.15S                  
BRAINERD       PTCLDY    50  36  58 CALM      30.14S                  
HIBBING        PTCLDY    46  25  43 CALM      30.13S                  
ALEXANDRIA     PTCLDY    57  24  28 W6        30.17R                  
SAINT CLOUD    PTCLDY    52  31  44 SW3       30.14S                  
MINNEAPOLIS    MOCLDY    60  27  28 CALM      30.14S                  
$$

  *****  WEATHER ACROSS SOUTH DAKOTA  *****
  
CITY           SKY/WX    TMP DP  RH WIND       PRES   REMARKS
SIOUX FALLS    MOCLDY    50  36  58 CALM      30.17R                  
BROOKINGS      MOCLDY    55  27  33 CALM      30.19S                  
WATERTOWN      PTCLDY    54  25  32 CALM      30.17S                  
HURON          CLEAR     58  43  57 N15       30.19R                  
SISSETON         N/A     56  41  57 N13       30.18R                  
ABERDEEN       MOCLDY    54  41  61 N15G26    30.24R                  
MITCHELL       PTCLDY    60  27  28 N3        30.17R                  
PIERRE         PTCLDY    49  42  77 N15       30.28R                  
MOBRIDGE       CLOUDY    47  44  90 N7        30.28F                  
RAPID CITY     CLOUDY    45  39  79 N8        30.34R                  
$$

  *****  SOME WEATHER IN NEARBY STATES *****
  
CITY           SKY/WX    TMP DP  RH WIND       PRES   REMARKS
GLASGOW MT     CLEAR     47  34  60 SE10      30.26S                  
GREAT FALLS MT CLEAR     50  32  50 S8        30.19R                  
CHEYENNE WY    CLOUDY    40  37  89 N6        30.34R                  
SCOTTSBLUFF NE CLOUDY    49  42  77 N9        30.31R                  
OMAHA NE       MOCLDY    57  35  43 NE6       30.15R                  
DES MOINES IA  CLEAR     59  32  36 E3        30.14R                  
DAVENPORT IA   CLEAR     53  34  48 N5        30.11R                  
CHICAGO IL     PTCLDY    43  32  65 NE6       30.13R                  
EAU CLAIRE WI  CLEAR     56  29  35 NE5       30.13R                  
LA CROSSE WI   CLEAR     53  36  52 N3        30.10R                  
$$

  *****  SOME NATIONAL WEATHER *****
  
CITY           SKY/WX    TMP DP  RH WIND       PRES   REMARKS
LA GUARDIA NY  CLOUDY    54  35  48 NW16      29.72R                  
RALEIGH NC     PTCLDY    54  32  43 CALM      29.94R                  
ATLANTA GA     CLOUDY    59  40  49 N7        29.89R                  
NEW ORLEANS LA TSTM      68  65  90 NE7       29.83R FOG              
OKLAHOMA CITY  CLOUDY    49  45  86 NE16G23   30.02R                  
ALBUQUERQUE NM CLOUDY    52  34  50 E16       30.18R                  
SALT LAKE CITY PTCLDY    54  38  54 W6        30.20R                  
LOS ANGELES CA CLEAR     68  45  43 W14       29.91R                  
BOISE ID       CLEAR     64  29  26 CALM      30.17S                  
SEATTLE WA     MOCLDY    71  50  47 NW6       29.95F                  
$$

*** WEATHER ACROSS MANITOBA...SASKATCHEWAN AND ONTARIO ***
                ***ONTARIO***
  
CITY           SKY/WX    TMP DP  RH WIND       PRES   REMARKS
GERALDTON      PTCLDY    36  30  80 NW2       30.14F                  
THUNDER BAY    CLEAR     39  32  75 CALM      30.16S                  
SIOUX LOOKOUT  CLOUDY    46  32  57 CALM      30.14F                  
TORONTO        PTCLDY    45  34  65 N14G21    30.00R                  
BIG TROUT LK   LGT RAIN  45  36  70 NW2       30.10S                  
PICKLE LAKE    NOT AVBL                                               
DRYDEN         MOCLDY    54  36  50 N5        30.15S                  
KENORA         NOT AVBL                                               
$$      
                *** MANITOBA***
  
CITY           SKY/WX    TMP DP  RH WIND       PRES   REMARKS
BRANDON        CLEAR     39  28  65 NW7       30.25R                  
DAUPHIN        CLEAR     41  34  75 NE7       30.25R                  
ISLAND LAKE    LGT RAIN  37  36  93 W5        30.18R                  
PILOT MOUND      N/A     39  39 100 SW3         N/A                   
THE PAS        PTCLDY    37  30  75 E2        30.22R                  
THOMPSON       CLOUDY    36  30  80 NW7       30.20R                  
WINNIPEG       MOCLDY    43  41  93 W5        30.26                   
LYNN LAKE      CLOUDY    36  34  93 S3        30.20S                  
CHURCHILL      LGT SNOW  28  27  93 NE10      30.21S WCI  19          
GILLAM         DRIZZLE   34  32  93 SW5       30.13R                  
$$
                ***SASKATCHEWAN***
  
CITY           SKY/WX    TMP DP  RH WIND       PRES   REMARKS
ESTEVAN        PTCLDY    46  34  61 SE3       30.26R                  
KINDERSLEY     PTCLDY    52  27  37 S7        30.12S                  
LLOYDMINSTER   MOCLDY    50  25  37 SW6       30.08R                  
PRINCE ALBERT  MOCLDY    46  36  66 SE3       30.15F                  
REGINA         PTCLDY    50  32  50 SW5       30.24R                  
YORKTON        CLEAR     48  27  43 VRB2      30.25R                  

Return to Home page


Western Regional Climate Center, wrcc@dri.edu